This demonstration page uses our WeatherBlox Daily Observations layout. Learn more.

Left ArrowRight Arrow

41.55636, -103.73856

Hourly Observations for June 27, 2015

Temp ( °F °C ) Dew Point ( °F °C ) Humidity (%) Winds ( mph kmh ) Pressure ( in mb ) Visibility ( mi km ) Precip ( " mm )
12:53 am 00:53 Clear 60 15.6 55 12.8 84 84 E 5 7 30.12 1020 10 16.0934 0 0
1:53 am 01:53 Clear 59 15 54 12.2 83 83 ENE 5 7 30.11 1020 10 16.0934 0 0
2:53 am 02:53 Clear 59 15 54 12.2 83 83 E 5 7 30.11 1020 10 16.0934 0 0
3:53 am 03:53 Partly Cloudy 59 15 55 12.8 87 87 E 5 7 30.1 1019 10 16.0934 0 0
4:53 am 04:53 Clear 58 14.4 54 12.2 87 87 E 5 7 30.11 1020 10 16.0934 0 0
5:53 am 05:53 Sunny 58 14.4 54 12.2 87 87 Calm 30.11 1020 10 16.0934 0 0
6:53 am 06:53 Sunny 63 17.2 56 13.3 78 78 E 5 7 30.1 1019 10 16.0934 0 0
7:53 am 07:53 Sunny 66 18.9 57 13.9 73 73 ESE 3 6 30.11 1020 10 16.0934 0 0
8:53 am 08:53 Sunny 71 21.7 59 15 66 66 VRB 3 6 30.11 1020 10 16.0934 0 0
9:53 am 09:53 Sunny 76 24.4 58 14.4 54 54 Calm 30.09 1019 10 16.0934 0 0
10:53 am 10:53 Sunny 80 26.7 60 15.6 51 51 VRB 5 7 30.08 1019 10 16.0934 0 0
11:53 am 11:53 Sunny 84 28.9 48 8.9 29 29 WSW 7 11 30.07 1018 10 16.0934 0 0
12:53 pm 12:53 Sunny 86 30 50 10 29 29 VRB 7 11 30.06 1018 10 16.0934 0 0
1:53 pm 13:53 Sunny 86 30 50 10 29 29 VRB 6 9 30.04 1017 10 16.0934 0 0
2:53 pm 14:53 Sunny 87 30.6 50 10 28 28 SE 6 9 30.03 1017 10 16.0934 0 0
3:53 pm 15:53 Sunny 88 31.1 48 8.9 25 25 VRB 5 7 30 1016 10 16.0934 0 0
4:53 pm 16:53 Sunny 91 32.8 45 7.2 20 20 Calm 29.98 1015 10 16.0934 0 0
5:53 pm 17:53 Sunny 87 30.6 49 9.4 27 27 SSE 7 11 29.98 1015 10 16.0934 0 0
6:53 pm 18:53 Sunny 84 28.9 53 11.7 34 34 ESE 9 15 29.97 1015 10 16.0934 0 0
7:53 pm 19:53 Sunny 80 26.7 53 11.7 39 39 SE 6 9 29.98 1015 10 16.0934 0 0
8:53 pm 20:53 Clear 72 22.2 58 14.4 61 61 ESE 6 9 29.99 1016 10 16.0934 0 0
9:53 pm 21:53 Clear 69 20.6 57 13.9 66 66 Calm 30.01 1016 10 16.0934 0 0
10:53 pm 22:53 Clear 68 20 55 12.8 63 63 ESE 6 9 30.01 1016 10 16.0934 0 0
11:53 pm 23:53 Clear 64 17.8 54 12.2 70 70 E 7 11 30.01 1016 10 16.0934 0 0

Powered by AerisWeather